User: anonymous   Login
Location: Mentone
(34.5413°N, 85.5351°W)
Time: 17:19:38
(UTC-05:00)
Language:

UOSAT-12 - Orbit

View from above orbital plane
View from above orbital plane
View from above satellite
View from above satellite

Ground track
Ground track

The orbit data is extracted from the following two-line orbital elements,

1 25693U 99021A   15149.47943910  .00000109  00000-0  33163-4 0  9993
2 25693 064.5565 275.8689 0043153 242.9704 182.2894 14.80448724869174
Epoch (UTC): 29 May 2015 11:30:23
Eccentricity: 0.0043153
inclination: 64.5565°
perigee height: 597 km
apogee height: 658 km
right ascension of ascending node: 275.8689°
argument of perigee: 242.9704°
revolutions per day: 14.80448724
mean anomaly at epoch: 182.2894°
orbit number at epoch: 86917

The dashed part of the orbit path shows where the satellite is in the earth's shadow,  

DLR